www.pogodaiklimat.ru

Погода и климат >> Архив погоды >> Дания >> Торае


ПОГОДА в Торае

  • Прогноз погоды в Торае
  • Монитор погоды в Торае

АРХИВ ПОГОДЫ в Торае

Время (UTC), дата Ветер
(напр.,м/с)
 
Видим.   Явления Облачность Т
(С)
Тd
(С)
f
(%)
Тe
(С)
Тes
(С)
Комфортность P
(гПа)
Po
(гПа)
Тmin
(С)
Tmax
(С)
R
(мм)
R24
(мм)
S
(см)
07 11.07 Ю 6 14 км в посл. час морось {ливн. осадки} н/о +13.8 +12.0 89 +12 +12 1013.6 1013.2
08 11.07 Ю 6 15 км н/о +14.2 +11.9 86 +12 +12 1013.6 1013.1
09 11.07 Ю 5 17 км {ливн. осадки} н/о +15.3 +12.2 82 +14 +14 1013.5 1013.1
10 11.07 Ю 5 16 км н/о +16.2 +12.6 79 +15 +15 1013.2 1012.8
11 11.07 Ю 5 15 км слаб. ливневой дождь н/о +16.2 +12.9 81 +15 +15 1012.9 1012.5
12 11.07 Ю 5 14 км {ливн. осадки, дождь} н/о +16.1 +13.3 83 +15 +15 1012.8 1012.4
13 11.07 Ю 4 3900 м слаб. ливневой дождь н/о +14.8 +13.8 94 +13 +13 1012.9 1012.5
14 11.07 Ю 3 6000 м в посл. час морось {ливн. осадки} н/о +15.5 +14.8 96 +15 +15 1012.6 1012.2
15 11.07 Ю 3 10 км {ливн. осадки, дождь} н/о +16.3 +14.6 90 +16 +16 1012.3 1011.9
16 11.07 Ю 3 11 км н/о +16.6 +15.2 91 +16 +16 1012.1 1011.7
17 11.07 Ю 3 12 км н/о +17.1 +15.0 87 +17 +17 1011.6 1011.2
18 11.07 ЮВ 4 13 км {ливн. осадки, дождь} н/о +17.5 +14.8 84 +17 +17 1011.4 1011.0 +13.4 +17.6
19 11.07 Ю 4 27 км н/о +15.9 +14.8 93 +15 +15 1011.2 1010.8
20 11.07 Ю 4 13 км н/о +15.6 +14.9 96 +15 +15 1011.4 1011.0
21 11.07 Ю 4 15 км {дымка} н/о +15.7 +15.2 97 +15 +15 1011.4 1011.0
22 11.07 ЮВ 3 10 км слаб. ливневой дождь н/о +15.8 +15.3 97 +15 +15 1011.4 1010.9
23 11.07 ЮВ 3 8000 м слаб. ливневой дождь н/о +15.6 +15.2 97 +15 +15 1011.1 1010.7
00 12.07 Ю 4 4700 м морось {ливн. осадки, дождь} н/о +15.7 +15.4 98 +15 +15 1010.8 1010.4
01 12.07 ЮВ 3 3000 м морось {дождь} н/о +15.6 +15.4 99 +15 +15 1010.5 1010.1
02 12.07 Ю 4 2400 м морось {дождь} н/о +15.7 +15.6 99 +15 +15 1010.2 1009.8
03 12.07 Ю 3 2500 м морось {дождь} н/о +15.6 +15.5 99 +15 +15 1010.1 1009.7
04 12.07 ЮВ 2 3200 м морось {дождь} н/о +15.5 +15.4 99 +16 +16 1010.0 1009.6
05 12.07 ЮВ 1 6000 м в посл. час морось н/о +15.5 +15.3 99 +16 +16 1010.0 1009.6
06 12.07 В 2 4300 м ливневой дождь н/о +15.9 +15.6 98 +16 +16 1010.1 1009.7 +15.2 +17.5
07 12.07 В 2 4500 м дождь {ливн. осадки} н/о +16.0 +15.8 99 +16 +16 1010.1 1009.7
08 12.07 Ю 3 2500 м слаб. ливневой дождь н/о +16.3 +16.0 98 +16 +16 1010.2 1009.8
09 12.07 Ю 3 6000 м в посл. час морось {ливн. осадки, дождь} н/о +17.2 +16.5 96 +17 +17 1010.2 1009.8
10 12.07 Ю 3 12 км н/о +18.2 +16.5 90 +19 +19 1010.2 1009.8
11 12.07 Ю 4 17 км н/о +19.0 +16.5 85 +20 +20 1010.1 1009.7
12 12.07 Ю 4 13 км {ливн. осадки, дождь} н/о +17.8 +15.4 86 +18 +18 1010.0 1009.6
13 12.07 ЮЗ 1 23 км н/о +18.8 +15.9 83 +21 +21 комфорт 1010.3 1009.9
14 12.07 ЮЗ 1 27 км н/о +19.4 +15.5 78 +22 +22 комфорт 1010.2 1009.8
15 12.07 С 2 13 км ливневой дождь н/о +18.3 +16.9 92 +20 +20 1010.2 1009.8
16 12.07 С 2 24 км {ливн. осадки} н/о +18.4 +16.0 86 +20 +20 1010.2 1009.8
17 12.07 С 1 8000 м ливневой дождь н/о +17.1 +15.8 92 +19 +19 1010.5 1010.1
18 12.07 СЗ 2 10 км слаб. ливневой дождь н/о +16.8 +15.7 93 +17 +17 1010.8 1010.4 +15.6 +20.3
19 12.07 С 2 21 км {ливн. осадки} н/о +16.9 +15.6 92 +17 +17 1011.1 1010.7
20 12.07 С 2 13 км н/о +16.9 +15.9 94 +17 +17 1011.3 1010.9
21 12.07 С 3 4100 м дымка {ливн. осадки} н/о +16.5 +16.0 97 +16 +16 1011.6 1011.2
22 12.07 С 2 3800 м дымка н/о +16.0 +15.8 99 +16 +16 1011.9 1011.5
23 12.07 С 2 4800 м дымка н/о +15.6 +15.4 99 +16 +16 1012.1 1011.7
00 13.07 С 3 2700 м дымка {ливн. осадки} н/о +15.4 +15.3 99 +15 +15 1012.2 1011.8
01 13.07 С 3 3600 м дымка н/о +15.3 +15.2 99 +15 +15 1012.2 1011.8
02 13.07 С 2 2900 м дымка н/о +14.9 +14.8 99 +14 +14 1012.3 1011.9
03 13.07 С 3 2000 м дымка н/о +14.7 +14.6 99 +14 +14 1012.6 1012.2
04 13.07 2900 м дымка н/о +14.7 +14.6 99 1012.9 1012.5
05 13.07 С 5 100 м туман {дымка} н/о +14.0 +14.0 100 +12 +12 1013.2 1012.8
06 13.07 С 4 300 м туман {дымка} н/о +14.6 +14.6 100 +13 +13 1013.6 1013.2 +13.9 +17.1
07 13.07 С 4 3600 м в посл. час туман {дымка} н/о +15.0 +15.0 100 +14 +14 1014.0 1013.6
08 13.07 С 4 6000 м дымка н/о +15.6 +15.5 99 +15 +15 1014.3 1013.9
09 13.07 СЗ 4 11 км {туман, дымка} н/о +16.3 +15.0 92 +16 +16 1014.8 1014.4
10 13.07 С 2 19 км н/о +18.3 +15.4 83 +19 +19 1014.9 1014.5
11 13.07 С 1 24 км н/о +19.1 +15.5 80 +22 +22 комфорт 1015.0 1014.6
12 13.07 ЮЗ 1 16 км {туман, дымка} н/о +18.5 +15.2 81 +20 +20 1014.9 1014.5
13 13.07 З 2 27 км н/о +19.5 +15.3 77 +22 +22 комфорт 1014.9 1014.5
14 13.07 СЗ 4 28 км н/о +21.1 +16.3 74 +24 +24 комфорт 1014.7 1014.3
15 13.07 С 3 35 км н/о +21.0 +14.9 68 +24 +24 комфорт 1014.4 1014.0
17 13.07 СЗ 6 40 км н/о +19.6 +13.2 67 +21 +21 комфорт 1014.4 1014.0
18 13.07 СЗ 6 35 км н/о +18.3 +12.9 71 +18 +18 1014.8 1014.4 +14.5 +21.7
19 13.07 СЗ 5 26 км н/о +16.3 +12.1 76 +15 +15 1015.4 1015.0
20 13.07 СЗ 5 27 км н/о +15.1 +11.6 80 +14 +14 1015.8 1015.4
21 13.07 СЗ 4 25 км н/о +14.3 +11.4 83 +13 +13 1016.3 1015.9
22 13.07 СЗ 5 25 км н/о +14.1 +11.5 84 +12 +12 1016.2 1015.8
23 13.07 СЗ 4 25 км н/о +13.8 +10.9 83 +12 +12 1016.3 1015.9
00 14.07 СЗ 4 24 км н/о +13.9 +10.8 82 +12 +12 1016.2 1015.8
01 14.07 СЗ 4 21 км н/о +13.9 +10.7 81 +12 +12 1016.2 1015.8
02 14.07 СЗ 5 26 км н/о +13.6 +10.6 82 +12 +12 1015.8 1015.4
03 14.07 СЗ 5 28 км н/о +13.6 +10.7 83 +12 +12 1015.9 1015.5
04 14.07 СЗ 4 18 км н/о +13.4 +11.2 87 +12 +12 1015.9 1015.5
05 14.07 СЗ 4 18 км {ливн. осадки, дождь} н/о +13.2 +11.1 87 +11 +11 1016.0 1015.6
06 14.07 СЗ 4 25 км в посл. час дождь {ливн. осадки} н/о +13.2 +11.2 88 +11 +11 1016.3 1015.9 +13.0 +18.4
07 14.07 З 3 26 км в посл. час морось {ливн. осадки} н/о +13.7 +11.6 87 +12 +12 1016.5 1016.1
08 14.07 СЗ 2 35 км н/о +14.0 +11.6 85 +13 +13 1016.7 1016.3
09 14.07 З 3 24 км {ливн. осадки} н/о +14.2 +11.9 86 +13 +13 1016.9 1016.5
10 14.07 З 3 28 км н/о +14.4 +11.8 84 +13 +13 1017.0 1016.6
11 14.07 З 4 24 км н/о +14.8 +12.3 85 +14 +14 1017.0 1016.6
12 14.07 З 4 29 км {ливн. осадки} н/о +14.9 +12.7 87 +14 +14 1017.1 1016.7
13 14.07 З 5 20 км н/о +15.6 +13.0 85 +14 +14 1017.0 1016.5
14 14.07 З 5 17 км н/о +16.0 +13.1 83 +15 +15 1016.9 1016.5
15 14.07 З 4 16 км н/о +16.2 +13.2 82 +15 +15 1016.6 1016.1
16 14.07 З 5 14 км н/о +16.2 +13.9 86 +15 +15 1016.3 1015.9
17 14.07 З 6 14 км н/о +16.4 +13.8 85 +15 +15 1016.2 1015.8
18 14.07 СЗ 5 16 км н/о +16.2 +12.6 79 +15 +15 1016.2 1015.8 +13.2 +16.6
19 14.07 СЗ 6 18 км н/о +15.6 +11.9 79 +14 +14 1016.2 1015.8
20 14.07 СЗ 6 19 км н/о +14.4 +11.1 81 +13 +13 1016.7 1016.3
21 14.07 СЗ 5 21 км н/о +13.8 +10.4 80 +12 +12 1016.8 1016.4
22 14.07 СЗ 4 18 км н/о +13.4 +10.2 81 +12 +12 1016.8 1016.4
23 14.07 СЗ 5 20 км н/о +12.9 +9.7 81 +11 +11 1016.6 1016.2
00 15.07 СЗ 5 21 км н/о +12.4 +9.2 81 +10 +10 1016.3 1015.9
01 15.07 СЗ 6 21 км н/о +12.3 +8.9 80 +10 +10 1016.4 1015.9
02 15.07 СЗ 5 22 км н/о +12.3 +8.8 79 +10 +10 1016.1 1015.7
03 15.07 СЗ 5 21 км н/о +12.5 +8.9 79 +10 +10 1015.8 1015.4
04 15.07 СЗ 6 25 км н/о +12.5 +8.5 77 +10 +10 1015.5 1015.1
05 15.07 СЗ 5 24 км н/о +12.8 +8.9 77 +11 +11 1015.3 1014.9
06 15.07 З 6 23 км н/о +13.0 +9.0 77 +11 +11 1015.1 1014.6 +12.2 +16.2
07 15.07 СЗ 6 23 км н/о +13.5 +8.9 74 +11 +11 1015.1 1014.7
08 15.07 З 6 22 км н/о +13.9 +9.4 74 +12 +12 1014.8 1014.4
09 15.07 З 6 22 км н/о +14.4 +9.5 72 +13 +13 1014.5 1014.1
10 15.07 СЗ 6 22 км н/о +14.9 +9.6 71 +13 +13 1014.4 1014.0
11 15.07 З 6 19 км н/о +15.0 +10.3 73 +13 +13 1014.1 1013.7
12 15.07 З 8 18 км н/о +15.6 +11.4 76 +14 +14 1013.8 1013.4
13 15.07 З 7 17 км н/о +16.2 +11.9 76 +15 +15 1013.7 1013.2
14 15.07 З 7 15 км н/о +16.7 +11.8 73 +15 +15 1013.3 1012.9
15 15.07 З 5 17 км н/о +17.7 +12.2 70 +17 +17 1013.2 1012.8
16 15.07 СЗ 6 18 км н/о +17.9 +12.1 69 +17 +17 1013.1 1012.7
17 15.07 СЗ 5 19 км н/о +18.0 +12.8 72 +18 +18 1012.9 1012.5
18 15.07 СЗ 5 18 км н/о +17.5 +12.8 74 +17 +17 1012.7 1012.3 +12.9 +18.7
19 15.07 СЗ 7 16 км н/о +16.3 +12.7 79 +15 +15 1013.2 1012.7
20 15.07 СЗ 8 16 км н/о +14.6 +12.1 85 +12 +12 1013.6 1013.1
21 15.07 СЗ 5 15 км н/о +13.8 +11.7 87 +12 +12 1013.7 1013.3
22 15.07 СЗ 6 16 км н/о +13.7 +11.9 89 +12 +12 1013.7 1013.3
23 15.07 СЗ 5 18 км н/о +13.6 +11.6 88 +12 +12 1013.7 1013.3
00 16.07 СЗ 6 23 км н/о +13.5 +11.7 89 +11 +11 1013.8 1013.4
01 16.07 СЗ 5 25 км н/о +13.6 +11.7 88 +12 +12 1013.6 1013.2
02 16.07 СЗ 6 30 км н/о +13.6 +11.3 86 +11 +11 1013.4 1013.0
03 16.07 СЗ 6 40 км н/о +13.8 +11.4 85 +12 +12 1013.1 1012.7
04 16.07 СЗ 6 45 км н/о +14.0 +11.6 85 +12 +12 1012.8 1012.4
05 16.07 СЗ 5 45 км н/о +14.1 +11.5 84 +12 +12 1012.9 1012.5
06 16.07 СЗ 6 40 км н/о +14.5 +11.1 80 +13 +13 1012.8 1012.4 +13.4 +17.5
07 16.07 СЗ 5 35 км н/о +15.0 +11.8 81 +14 +14 1012.8 1012.4
08 16.07 СЗ 6 26 км н/о +15.6 +11.7 78 +14 +14 1012.8 1012.4
09 16.07 СЗ 4 26 км н/о +16.2 +11.9 76 +15 +15 1013.0 1012.6
10 16.07 СЗ 4 28 км н/о +17.3 +12.5 73 +17 +17 1013.1 1012.7
11 16.07 С 4 25 км н/о +19.0 +12.8 67 +20 +20 1013.2 1012.8
12 16.07 24 км н/о +20.0 +13.8 67 1013.4 1013.0
14 16.07 З 2 27 км н/о +20.4 +14.9 71 +24 +24 комфорт 1013.2 1012.8
15 16.07 ЮЗ 4 25 км н/о +18.4 +14.4 78 +19 +19 1013.2 1012.8
16 16.07 ЮЗ 3 26 км н/о +19.2 +15.4 79 +21 +21 комфорт 1013.1 1012.7
17 16.07 СЗ 3 40 км н/о +20.7 +13.0 61 +24 +24 комфорт 1013.3 1012.9
18 16.07 СЗ 6 30 км {ливн. осадки, дождь} н/о +19.4 +14.2 72 +21 +21 комфорт 1013.6 1013.2 +14.5 +21.4
19 16.07 СЗ 5 30 км н/о +17.5 +14.2 81 +17 +17 1014.0 1013.6
20 16.07 СЗ 5 24 км н/о +16.2 +13.7 85 +15 +15 1014.6 1014.2
21 16.07 СЗ 5 19 км н/о +15.2 +13.4 89 +14 +14 1015.0 1014.5
22 16.07 СЗ 4 15 км н/о +14.3 +13.3 94 +13 +13 1015.2 1014.8
23 16.07 СЗ 4 13 км н/о +13.9 +13.1 95 +12 +12 1015.3 1014.9
00 17.07 С 5 12 км н/о +14.3 +13.6 96 +13 +13 1015.2 1014.8
01 17.07 СЗ 4 12 км н/о +13.8 +13.0 95 +12 +12 1015.4 1015.0
02 17.07 СЗ 4 12 км н/о +13.6 +12.8 95 +12 +12 1015.3 1014.9
03 17.07 СЗ 3 11 км н/о +13.4 +12.7 96 +12 +12 1015.2 1014.8
04 17.07 С 3 12 км н/о +13.4 +12.8 96 +12 +12 1015.3 1014.9
05 17.07 С 2 13 км н/о +13.5 +12.5 94 +13 +13 1015.3 1014.9
06 17.07 С 2 20 км н/о +13.9 +12.4 91 +14 +14 1015.5 1015.0 +13.2 +19.4
07 17.07 СЗ 3 19 км н/о +13.5 +12.1 91 +12 +12 1015.6 1015.2
08 17.07 С 1 29 км н/о +14.1 +11.8 86 +14 +14 1015.8 1015.4
09 17.07 СЗ 1 23 км н/о +14.3 +12.0 86 +15 +15 1015.8 1015.4
10 17.07 З 2 20 км н/о +14.7 +12.1 84 +14 +14 1015.8 1015.4
11 17.07 Ю 2 19 км н/о +15.7 +12.3 80 +16 +16 1015.6 1015.2
12 17.07 ЮЗ 2 23 км н/о +16.6 +13.1 80 +17 +17 1015.4 1015.0
13 17.07 Ю 2 30 км н/о +17.8 +13.0 73 +19 +19 1015.2 1014.8
14 17.07 Ю 2 30 км н/о +18.5 +13.8 74 +20 +20 1014.9 1014.5
15 17.07 Ю 2 28 км н/о +19.1 +14.6 75 +21 +21 комфорт 1014.5 1014.1
16 17.07 Ю 2 12 км н/о +19.2 +15.7 80 +21 +21 комфорт 1014.1 1013.7
17 17.07 Ю 3 12 км {дымка} н/о +19.1 +15.6 80 +21 +21 комфорт 1013.8 1013.4
18 17.07 Ю 3 30 км {дымка} н/о +18.8 +15.1 79 +20 +20 1013.7 1013.3 +13.3 +20.3
19 17.07 Ю 4 28 км н/о +17.7 +15.6 88 +18 +18 1014.0 1013.6
20 17.07 СЗ 3 50 км н/о +16.6 +12.3 76 +16 +16 1014.2 1013.8
21 17.07 СЗ 3 45 км н/о +15.3 +12.8 85 +15 +15 1014.2 1013.7
22 17.07 СЗ 3 28 км н/о +14.7 +12.8 88 +14 +14 1014.3 1013.9
23 17.07 СЗ 2 18 км н/о +14.1 +12.9 92 +13 +13 1014.2 1013.8
00 18.07 СЗ 2 15 км н/о +14.1 +13.2 94 +13 +13 1014.0 1013.6
01 18.07 С 3 14 км н/о +14.2 +13.3 94 +13 +13 1013.8 1013.3
02 18.07 СВ 2 9000 м дымка н/о +13.2 +12.7 97 +13 +13 1013.4 1013.0
03 18.07 СВ 2 8000 м дымка н/о +13.0 +12.7 98 +12 +12 1013.3 1012.8
04 18.07 ЮВ 1 10 км {дымка} н/о +12.7 +12.1 96 +13 +13 1013.3 1012.8
05 18.07 Ю 3 13 км {дымка} н/о +14.2 +13.1 93 +13 +13 1013.3 1012.9
06 18.07 ЮВ 3 29 км {дымка} н/о +16.2 +13.6 85 +16 +16 1013.1 1012.7 +12.3 +18.9

 

Местоположение метеостанции Торае (Дания): широта 55.25 долгота 9.88 высота над уровнем моря 3 м.

В архиве по умолчанию представлена погода в Торае за последнюю неделю. Архивные данные за месяц целиком и за предыдущие месяцы, начиная с января 2011 года, Вы можете получить, выбрав интересующий диапазон дат из раскрывающегося списка и нажав кнопку "Ввод!".


*Определитесь, кто Вы:
робот инопланетянин человек

Внимание! Время в таблицах - всемирное. Для получения местного времени необходимо прибавить поправку, которая равна 1 ч.

Смотрите также архив погоды в соседних городах и на ближайших метеорологических станциях:

Погода в Арслеве (Дания) (36 км)
Погода в Оденсе (Дания) (38 км)
Погода в Скрыдструпе (Дания) (39 км)
Погода в Вамдрупе (Дания) (40 км)
Погода на Мысе Kegnaes (Дания) (45 км)
Погода в Тосинге (Дания) (51 км)
Погода в Глюксбурге (Германия) (53 км)
Погода в Аскове (Дания) (54 км)
Погода в Ольпенице (Германия) (65 км)
Погода в Хорсенсе (Дания) (69 км)

Пояснения к столбцам:

Ветер - указаны скорость ветра в м/с - средняя за 10 мин, порывы в срок и между сроками (в фигурных скобках) и направление, откуда дует ветер: С - северный, СВ - северо-восточный, В - восточный, ЮВ - юго-восточный, Ю - южный, ЮЗ - юго-западный, З - западный, СЗ - северо-западный.
Видимость - горизонтальная дальность видимости в метрах или километрах. При видимости от 1 до 10 км при отсутствии осадков обычно наблюдается дымка, при ухудшении видимости до 1 км и менее - туман. В сухую погоду видимость может ухудшаться дымом, пылью или мглою.
Явления - указаны атмосферные явления, наблюдавшиеся в срок или в последний час перед сроком; фигурными скобками обозначены явления, наблюдавшиеся между сроками (за 1-3 часа до срока); квадратными скобками обозначены град или гололедные отложения с указанием их диаметра в мм.
Облачность - указаны через наклонную черту общая и нижняя облачность в баллах и высота нижней границы облаков в метрах; квадратными скобками обозначены формы облаков: Ci - перистые, Cs - перисто-слоистые, Cc - перисто-кучевые, Ac - высококучевые, As - высокослоистые, Sc - слоисто-кучевые, Ns - слоисто-дождевые, Cu - кучевые, Cb - кучево-дождевые. Подробнее классификацию облаков см. в Атласе облаков (PDF).
T - Температура воздуха - температура, измеренная на высоте 2 м над землей.
Td - Температура точки росы - температура, при понижении до которой содержащийся в воздухе водяной пар достигнет насыщения.
f - Относительная влажность воздуха - влажноcть воздуха, измеренная на высоте 2 м над землей.
Te - Эффективная температура - температура, которую ощущает одетый по сезону человек в тени. Характеристика душности погоды. При расчете учитывается влияние влажности воздуха и скорости ветра на теплоощущения человека.
Tes - Эффективная температура на солнце - температура, которую ощущает человек, с поправкой на солнечный нагрев. Характеристика знойности погоды. Зависит от высоты солнца над горизонтом, облачности и скорости ветра. Ночью, в пасмурную погоду, а также при ветре 12 м/с и более поправка равна нулю.
P - Атмосферное давление - приведенное к уровню моря атмосферное давление.
Po - Атмосферное давление - измеренное на уровне метеостанции атмосферное давление.
Tmin - Минимальная температура - минимум температуры воздуха на высоте 2 м над землей.
Tmax - Максимальная температура - максимум температуры воздуха на высоте 2 м над землей.
R - Количество осадков - Количество выпавших осадков за период времени, мм. При наведении курсора мыши на число - период времени, за который выпало указанное количество осадков.
R24 - Количество осадков - Количество выпавших осадков за 24 часа, мм.
S - Снежный покров - Высота снежного покрова, см. При наведении курсора мыши на число - состояние снежного покрова и степень покрытия местности в баллах.